www.pogodaiklimat.ru

Погода и климат >> Архив погоды >> Канада >> Нунавут >> Холл Бич


ПОГОДА в Холл Бич

  • Прогноз погоды в Холл Бич
  • Монитор погоды в Холл Бич

АРХИВ ПОГОДЫ в Холл Бич

Время (UTC), дата Ветер
(напр.,м/с)
 
Видим.   Явления Облачность Т
(С)
Тd
(С)
f
(%)
Тe
(С)
Тes
(С)
Комфортность P
(гПа)
Po
(гПа)
Тmin
(С)
Tmax
(С)
R
(мм)
R24
(мм)
S
(см)
06 13.06 ЮВ 6 н/о н/о +0.6 +0.6 100 -6 -6 1011.3 1010.3 +0.4 +1.9 0.2 12
09 13.06 ЮВ 5 н/о н/о +0.9 +0.9 100 -5 -5 1013.2 1012.2
12 13.06 В 4 н/о н/о +1.4 +1.1 98 -4 -4 1014.7 1013.7 +0.6 +1.9
15 13.06 В 5 н/о н/о +1.8 +1.8 100 -4 -4 1015.1 1014.1
18 13.06 СВ 3 н/о н/о +2.3 +2.1 99 -2 -2 1015.6 1014.6 +0.6 +2.9
21 13.06 В 3 н/о н/о +1.9 +1.8 99 -2 -2 1016.6 1015.6
00 14.06 В 2 н/о н/о +2.0 +1.9 99 -2 -2 1017.3 1016.3 +0.6 +2.9
03 14.06 СВ 2 н/о н/о +1.3 +1.3 100 -2 -2 1017.3 1016.3
06 14.06 С 1 н/о н/о +1.6 +1.6 100 -1 -1 1017.7 1016.7 +0.6 +2.9 15
09 14.06 З 2 н/о н/о +1.2 +1.2 100 -2 -2 1018.5 1017.5
12 14.06 С 2 н/о н/о +1.4 -0 -0 1019.0 1018.0 +0.8 +2.9
15 14.06 н/о н/о +2.9 +2.9 100 1019.3 1018.3
18 14.06 В 10 н/о н/о +3.2 +3.1 99 -4 -4 1019.7 1018.8 +0.8 +5.4
21 14.06 ЮВ 8 н/о н/о +4.6 +4.0 96 -2 -2 1020.5 1019.6
00 15.06 Ю 4 н/о н/о +5.9 +5.3 96 +2 +2 1020.9 1020.1 +0.8 +6.8
03 15.06 ЮЗ 3 н/о н/о +5.6 +5.1 97 +2 +2 1021.3 1020.6
06 15.06 СВ 9 н/о н/о +4.0 +3.6 97 -3 -3 1022.5 1021.7 +0.8 +6.8 20
09 15.06 В 4 н/о н/о +3.5 +3.1 97 -1 -1 1023.4 1022.7
12 15.06 СВ 3 н/о н/о +6.2 +1.7 73 +3 +3 1024.0 1023.5 +3.2 +6.8
15 15.06 В 3 н/о н/о +5.3 +2.0 79 +2 +2 1024.8 1024.2
18 15.06 ЮВ 4 н/о н/о +6.3 +2.3 76 +3 +3 1024.6 1024.0 +2.2 +6.7
21 15.06 ЮВ 5 н/о н/о +6.5 +4.1 85 +2 +2 1024.7 1024.1
00 16.06 ЮВ 4 н/о н/о +5.5 +3.1 85 +1 +1 1024.3 1023.7 +3.2 +7.2
03 16.06 Ю 2 н/о н/о +5.1 +4.1 93 +2 +2 1024.3 1023.7
06 16.06 Ю 3 н/о н/о +2.5 +2.0 96 -1 -1 1023.5 1022.8 +2.5 +7.2 11
09 16.06 ЮЗ 2 н/о н/о +3.5 +3.2 98 0 0 1023.1 1022.5
12 16.06 В 3 н/о н/о +3.5 +2.5 93 -1 -1 1023.0 1022.3 +1.7 +7.2
15 16.06 ЮВ 2 н/о н/о +6.5 +4.9 90 +5 +5 1021.9 1021.3
18 16.06 В 2 н/о н/о +7.1 +4.8 85 +5 +5 1021.3 1020.6 +1.7 +8.9
21 16.06 В 2 н/о н/о +8.2 +4.3 76 +6 +6 1020.5 1019.9
00 17.06 ЮВ 3 н/о н/о +6.9 +4.1 82 +4 +4 1019.7 1019.1 +1.7 +11.0
03 17.06 ЮВ 4 н/о н/о +4.1 +3.1 93 -0 -0 1018.7 1018.1
06 17.06 ЮЗ 3 н/о н/о +3.3 +2.7 96 -1 -1 1018.3 1017.7 +1.7 +11.0
09 17.06 ЮВ 3 н/о н/о +2.8 +2.0 94 -1 -1 1017.7 1017.1
12 17.06 ЮВ 4 н/о н/о +3.7 +2.4 91 -1 -1 1016.8 1016.2 +2.0 +11.0
15 17.06 ЮВ 4 н/о н/о +6.3 +4.2 86 +2 +2 1016.4 1015.8
18 17.06 Ю 4 н/о н/о +7.3 +5.1 86 +4 +4 1015.7 1015.1 +2.0 +8.0
21 17.06 СЗ 6 н/о н/о +10.2 +8.3 88 +7 +7 1015.5 1015.0
00 18.06 СВ 2 н/о н/о +3.6 +3.0 96 0 0 1016.1 1015.3 +2.0 +10.5
03 18.06 Ю 2 н/о н/о +5.1 +4.2 94 +2 +2 1015.9 1015.3
06 18.06 З 5 н/о н/о +3.9 +2.9 93 -1 -1 1015.0 1014.4 +2.0 +10.5 10
09 18.06 СЗ 2 н/о н/о +3.5 +2.1 91 0 0 1014.4 1013.9
12 18.06 ЮВ 4 н/о н/о +3.3 +2.1 92 -2 -2 1013.0 1012.2 +2.9 +10.5
15 18.06 ЮВ 7 н/о н/о +2.8 +2.8 100 -4 -4 1009.9 1009.2
18 18.06 Ю 8 н/о н/о +3.3 +3.1 99 -4 -4 1006.6 1005.8 +2.0 +4.0
21 18.06 Ю 11 н/о н/о +5.1 +4.0 93 -2 -2 1004.1 1003.4
00 19.06 Ю 8 н/о {осадки} н/о +3.8 +3.7 99 -3 -3 1004.1 1003.3 +2.0 +5.5 2
03 19.06 З 6 н/о {осадки} н/о +7.3 +7.1 99 +3 +3 1005.0 1004.4 4
06 19.06 СЗ 7 н/о {осадки} н/о +4.5 +3.6 94 -1 -1 1007.8 1007.1 +2.0 +8.2 4 11
09 19.06 СЗ 5 н/о н/о +3.8 +2.5 91 -1 -1 1009.9 1009.2
12 19.06 СЗ 7 н/о н/о +4.1 +1.9 86 -2 -2 1011.5 1010.8 +3.4 +8.2
15 19.06 СЗ 7 н/о н/о +4.4 +1.8 83 -1 -1 1012.7 1012.1
18 19.06 н/о н/о +4.4 +2.0 84 1013.5 1012.8 +3.1 +4.8
21 19.06 С 4 н/о н/о +5.1 +1.1 75 +1 +1 1014.4 1013.7
00 20.06 ЮВ 2 н/о н/о +5.4 +0.8 72 +3 +3 1014.8 1014.1 +2.8 +5.4
03 20.06 ЮВ 3 н/о н/о +3.8 +1.9 87 0 0 1015.6 1014.9

 

Местоположение метеостанции Холл Бич (Нунавут, Канада): широта 68.78 долгота -81.25 высота над уровнем моря 8 м.

В архиве по умолчанию представлена погода в Холл Бич за последнюю неделю. Архивные данные за месяц целиком и за предыдущие месяцы, начиная с января 2011 года, Вы можете получить, выбрав интересующий диапазон дат из раскрывающегося списка и нажав кнопку "Ввод!".


*Определитесь, кто Вы:
робот инопланетянин человек

Внимание! Время в таблицах - всемирное. Для получения местного времени необходимо прибавить поправку, которая равна -5 ч.

Смотрите также архив погоды в соседних городах и на ближайших метеорологических станциях:

Погода на Острове Роули (Нунавут, Канада) (95 км)
Погода в Лонгстафф-Блаффе (Нунавут, Канада) (246 км)
Погода в Кам Фор (Нунавут, Канада) (345 км)
Погода в Кугааруке (Нунавут, Канада) (347 км)
Погода в Делавер-Лейксе (Нунавут, Канада) (407 км)
Погода в Понд-Инлете (Нунавут, Канада) (450 км)
Погода в Понд-Инлете (Нунавут, Канада) (452 км)
Погода в Вейджер Бэй (Нунавут, Канада) (476 км)
Погода в Арктик Бей (Нунавут, Канада) (489 км)
Погода в Шеперд-Бее (Нунавут, Канада) (489 км)

Пояснения к столбцам:

Ветер - указаны скорость ветра в м/с - средняя за 10 мин, порывы в срок и между сроками (в фигурных скобках) и направление, откуда дует ветер: С - северный, СВ - северо-восточный, В - восточный, ЮВ - юго-восточный, Ю - южный, ЮЗ - юго-западный, З - западный, СЗ - северо-западный.
Видимость - горизонтальная дальность видимости в метрах или километрах. При видимости от 1 до 10 км при отсутствии осадков обычно наблюдается дымка, при ухудшении видимости до 1 км и менее - туман. В сухую погоду видимость может ухудшаться дымом, пылью или мглою.
Явления - указаны атмосферные явления, наблюдавшиеся в срок или в последний час перед сроком; фигурными скобками обозначены явления, наблюдавшиеся между сроками (за 1-3 часа до срока); квадратными скобками обозначены град или гололедные отложения с указанием их диаметра в мм.
Облачность - указаны через наклонную черту общая и нижняя облачность в баллах и высота нижней границы облаков в метрах; квадратными скобками обозначены формы облаков: Ci - перистые, Cs - перисто-слоистые, Cc - перисто-кучевые, Ac - высококучевые, As - высокослоистые, Sc - слоисто-кучевые, Ns - слоисто-дождевые, Cu - кучевые, Cb - кучево-дождевые. Подробнее классификацию облаков см. в Атласе облаков (PDF).
T - Температура воздуха - температура, измеренная на высоте 2 м над землей.
Td - Температура точки росы - температура, при понижении до которой содержащийся в воздухе водяной пар достигнет насыщения.
f - Относительная влажность воздуха - влажноcть воздуха, измеренная на высоте 2 м над землей.
Te - Эффективная температура - температура, которую ощущает одетый по сезону человек в тени. Характеристика душности погоды. При расчете учитывается влияние влажности воздуха и скорости ветра на теплоощущения человека.
Tes - Эффективная температура на солнце - температура, которую ощущает человек, с поправкой на солнечный нагрев. Характеристика знойности погоды. Зависит от высоты солнца над горизонтом, облачности и скорости ветра. Ночью, в пасмурную погоду, а также при ветре 12 м/с и более поправка равна нулю.
P - Атмосферное давление - приведенное к уровню моря атмосферное давление.
Po - Атмосферное давление - измеренное на уровне метеостанции атмосферное давление.
Tmin - Минимальная температура - минимум температуры воздуха на высоте 2 м над землей.
Tmax - Максимальная температура - максимум температуры воздуха на высоте 2 м над землей.
R - Количество осадков - Количество выпавших осадков за период времени, мм. При наведении курсора мыши на число - период времени, за который выпало указанное количество осадков.
R24 - Количество осадков - Количество выпавших осадков за 24 часа, мм.
S - Снежный покров - Высота снежного покрова, см. При наведении курсора мыши на число - состояние снежного покрова и степень покрытия местности в баллах.